Regional Weather Roundup
Issued by NWS Spokane, WA

Home | Current Version | Previous Version | Text Only | Print | Product List | Glossary On
Versions: 1 2 3 4 5 6 7 8 9 10 11 12 13 14 15 16 17 18 19 20 21 22 23 24 25 26 27 28 29 30 31 32 33 34 35 36 37 38 39 40 41 42 43 44 45 46 47 48 49 50
000
NZUS01 KOTX 031110
RWROTX
EASTERN WASHINGTON/NORTHERN IDAHO ROUNDUP
NATIONAL WEATHER SERVICE, SPOKANE WA
400 AM PDT THU SEP 03 2015

Note: "fair" indicated few or no clouds below 12,000 feet with no
significant weather and/or obstructions to visibility.

...NORTHEAST WASHINGTON AND NORTHERN IDAHO PANHANDLE...

CITY           SKY/WX    TMP DP  RH WIND       PRES   REMARKS
SPOKANE INTL   MOCLDY    50  43  77 S8        29.88R
SPOKANE DOWNTO MOCLDY    57  42  57 SW10G16   29.88R
COEUR D ALENE  PTCLDY    52  45  76 S5        29.88R
DEER PARK      MOCLDY    46  40  79 CALM      29.88R
BONNERS FERRY  PTSUNNY   45  41  87 CALM      29.90S

...SOUTHEAST WASHINGTON AND SOUTHERN IDAHO PANHANDLE...

CITY           SKY/WX    TMP DP  RH WIND       PRES   REMARKS
WALLA WALLA    PTCLDY    55  46  71 S9        29.94R
PULLMAN/MOSCOW MOCLDY    51  39  63 W9        29.93R
LEWISTON       CLOUDY    60  48  64 CALM      29.90R
LOWELL           N/A     56  54  93 CALM      29.93R

...COLUMBIA BASIN...

CITY           SKY/WX    TMP DP  RH WIND       PRES   REMARKS
EPHRATA        CLEAR     56  34  43 W14       29.87R
MOSES LAKE     CLEAR     52  41  66 SW7       29.90R
TRI CITIES     CLEAR     50  42  74 N3        29.93R
HERMISTON      CLEAR     53  44  71 SW7       29.94R
PENDLETON      CLOUDY    54  41  61 W6        29.95R

...EAST SLOPES CASCADES...

CITY           SKY/WX    TMP DP  RH WIND       PRES   REMARKS
THE DALLES     CLEAR     52  43  71 SW7       29.97R
YAKIMA         CLEAR     43  36  76 W7        29.94R
ELLENSBURG     CLEAR     45  37  73 NW10      29.93R
WENATCHEE      CLEAR     53  36  52 NW9       29.90R
OMAK           PTCLDY    44  29  55 W3        29.86R

...SOUTHERN BRITISH COLUMBIA...

CITY           SKY/WX    TMP DP  RH WIND       PRES   REMARKS
PENTICTON      MOCLDY    52  41  66 N8        29.89R
CRANBROOK      MOCLDY    43  39  87 W3        29.92S

...WESTERN MONTANA...

CITY           SKY/WX    TMP DP  RH WIND       PRES   REMARKS
MISSOULA       LGT RAIN  50  50 100 W8        29.93S

...NEIGHBORING CITIES...

CITY           SKY/WX    TMP DP  RH WIND       PRES   REMARKS
SEATTLE        CLOUDY    53  50  89 S5        29.98R
CALGARY        MOCLDY    43  36  75 SW3       29.91R



USA.gov is the U.S. government's official web portal to all federal, state and local government web resources and services.